Everett, WA

1:11 PM PDT on April 22, 2018 (GMT -0700)
Snohomish County

Weather History for KPAE - February, 2012

Change the Weather History Date:

Tuesday, February 21, 2012

  Actual Average Record
Temperature  
Mean Temperature 48 °F -  
Max Temperature 50 °F 50 °F 64 °F (1977)
Min Temperature 46 °F 35 °F 22 °F (1957)
Degree Days  
Heating Degree Days 17    
Moisture  
Dew Point 45 °F    
Average Humidity 89    
Maximum Humidity 96    
Minimum Humidity 82    
Precipitation  
Precipitation 0.83 in - - ()
Sea Level Pressure  
Sea Level Pressure 30.03 in    
Wind  
Wind Speed 9 mph (South)    
Max Wind Speed 18 mph    
Max Gust Speed 29 mph    
Visibility 8 miles    
Events Rain    
Averages and records for this station are not official NWS values.
T = Trace of Precipitation, MM = Missing Value Source: NWS Daily Summary

Daily Weather History Graph

Daily Weather History Graph

Search for Another Location

Airport or City:

Astronomy

Feb. 21, 2012 Rise Set
Actual Time 7:05 AM PST 5:40 PM PST
Civil Twilight 6:34 AM PST 6:12 PM PST
Nautical Twilight 5:58 AM PST 6:48 PM PST
Astronomical Twilight 5:22 AM PST 7:24 PM PST
Moon 6:34 AM PST (2/21) 5:57 PM PST (2/21)
Length of Visible Light 11h 38m
Length of Day
10h 35m
Waning Crescent, 0% of the Moon is Illuminated
Feb 21
Waning Crescent
Feb 21
New
Feb 29
First Quarter
Mar 8
Full
Mar 14
Last Quarter

Hourly Weather History & Observations

Time (PST) Temp. Windchill Dew Point Humidity Pressure Visibility Wind Dir Wind Speed Gust Speed Precip Events Conditions
12:53 AM 46.0 °F 40.6 °F 44.1 °F 93% 30.00 in 6.0 mi South 11.5 mph - 0.04 in Rain Light Rain
1:53 AM 46.0 °F 41.9 °F 44.1 °F 93% 30.01 in 4.0 mi SSE 8.1 mph - 0.04 in Rain Light Rain
2:53 AM 46.0 °F 41.0 °F 44.1 °F 93% 30.00 in 8.0 mi SSE 10.4 mph - 0.04 in Rain Light Rain
3:53 AM 46.0 °F 41.0 °F 45.0 °F 96% 30.00 in 5.0 mi South 10.4 mph - 0.05 in Rain Light Rain
4:53 AM 46.9 °F - 44.1 °F 90% 30.01 in 8.0 mi South 6.9 mph - 0.06 in Rain Light Rain
5:53 AM 46.9 °F - 44.1 °F 90% 30.02 in 7.0 mi South 6.9 mph - 0.03 in Rain Light Rain
6:53 AM 46.0 °F 41.9 °F 44.1 °F 93% 30.04 in 5.0 mi South 8.1 mph - 0.09 in Rain Light Rain
7:53 AM 46.9 °F - 44.1 °F 90% 30.05 in 7.0 mi SSW 6.9 mph - 0.11 in Rain Light Rain
8:53 AM 46.9 °F - 44.1 °F 90% 30.05 in 6.0 mi Calm Calm - 0.09 in Rain Light Rain
9:53 AM 46.9 °F - 44.1 °F 90% 30.07 in 4.0 mi SSW 8.1 mph - 0.05 in Rain Light Rain
10:43 AM 46.4 °F 41.5 °F 44.6 °F 93% 30.06 in 4.0 mi SSW 10.4 mph - 0.03 in Rain Light Rain
10:49 AM 46.4 °F 41.9 °F 44.6 °F 93% 30.05 in 2.5 mi South 9.2 mph - 0.04 in Rain Light Rain
10:50 AM 46.9 °F - 45.0 °F 93% 30.06 in 2.5 mi South 9.2 mph - 0.04 in Rain Light Rain
10:56 AM 46.4 °F 41.9 °F 44.6 °F 93% 30.03 in 2.0 mi South 9.2 mph - 0.00 in Rain Light Rain
11:53 AM 48.0 °F - 46.0 °F 93% 30.03 in 2.0 mi South 12.7 mph - 0.01 in Rain Light Rain
12:30 PM 48.2 °F - 46.4 °F 93% 30.01 in 6.0 mi South 16.1 mph 20.7 mph 0.02 in Rain Light Rain
12:53 PM 48.0 °F - 46.0 °F 93% 29.99 in 10.0 mi South 16.1 mph 24.2 mph 0.03 in Rain Light Rain
1:04 PM 48.2 °F - 44.6 °F 87% 29.97 in 10.0 mi South 17.3 mph 26.5 mph 0.00 in   Overcast
1:53 PM 48.2 °F - 44.6 °F 87% 29.99 in 10.0 mi SSW 18.4 mph 28.8 mph N/A   Overcast
2:53 PM 48.9 °F - 45.0 °F 86% 30.01 in 10.0 mi SSW 16.1 mph 23.0 mph N/A   Overcast
3:49 PM 50.0 °F - 44.6 °F 82% 30.02 in 10.0 mi SSW 3.5 mph - N/A   Overcast
3:53 PM 48.2 °F - 44.6 °F 87% 30.02 in 10.0 mi SW 5.8 mph - N/A   Overcast
4:53 PM 48.9 °F - 45.0 °F 86% 30.05 in 8.0 mi Calm Calm - 0.01 in Rain Rain
5:00 PM 48.2 °F - 44.6 °F 87% 30.04 in 6.0 mi South 3.5 mph - N/A Rain Light Rain
5:53 PM 48.9 °F - 45.0 °F 86% 30.05 in 10.0 mi SSE 6.9 mph - 0.05 in Rain Light Rain
6:17 PM 48.2 °F - 44.6 °F 87% 30.04 in 10.0 mi SSE 6.9 mph - 0.02 in Rain Light Rain
6:53 PM 48.0 °F - 45.0 °F 89% 30.05 in 9.0 mi Variable 4.6 mph - 0.04 in Rain Light Rain
7:53 PM 48.2 °F - 44.6 °F 87% 30.03 in 10.0 mi South 9.2 mph - N/A Rain Light Rain
8:53 PM 48.0 °F - 45.0 °F 89% 30.05 in 10.0 mi South 9.2 mph - 0.01 in Rain Light Rain
9:53 PM 48.0 °F - 45.0 °F 89% 30.05 in 10.0 mi South 11.5 mph - 0.01 in Rain Light Rain
10:18 PM 48.2 °F - 44.6 °F 87% 30.03 in 10.0 mi South 10.4 mph - 0.02 in Rain Light Rain
10:28 PM 48.2 °F - 44.6 °F 87% 30.02 in 10.0 mi SSW 10.4 mph - 0.02 in Rain Light Rain
10:53 PM 48.0 °F - 44.1 °F 86% 30.04 in 10.0 mi SSW 11.5 mph - 0.02 in Rain Light Rain
11:02 PM 48.2 °F - 44.6 °F 87% 30.03 in 10.0 mi SSW 10.4 mph - 0.00 in Rain Light Rain
11:53 PM 48.0 °F - 44.1 °F 86% 30.01 in 10.0 mi SSW 13.8 mph - 0.01 in Rain Light Rain